カタログに戻る

PEARL-1A

運用中通信SSO
NORAD 68990·PAYLOAD·🇮🇹 Italy

打ち上げ May 3, 2026 から Vandenberg Space Force Base

Loading…

次のパス (今後24時間)

TLE

最新Source: Space-Track

元期: Sep 13, 2026, 22:44 UTC

1 68990U 26100L   26256.94746411  .00001457  00000-0  15221-3 0  9999
2 68990  97.7182 152.4623 0004159 217.9761 142.1165 14.91178610 19922

AllMySatでPEARL-1Aをリアルタイム追跡

Download on the App Store